����������;��������(kVARh)
2018-09-24 00:00;0
2018-09-24 00:15;0,3
2018-09-24 00:30;0
2018-09-24 00:45;0,2
2018-09-24 01:00;0
2018-09-24 01:15;0,1
2018-09-24 01:30;0,15
2018-09-24 01:45;0,25
2018-09-24 02:00;0,6
2018-09-24 02:15;0,6
2018-09-24 02:30;1,05
2018-09-24 02:45;1,4
2018-09-24 03:00;1,9
2018-09-24 03:15;1,4
2018-09-24 03:30;2,3
2018-09-24 03:45;3,05
2018-09-24 04:00;12,6
2018-09-24 04:15;11,8
2018-09-24 04:30;13
2018-09-24 04:45;11,9
2018-09-24 05:00;11,85
2018-09-24 05:15;13,15
2018-09-24 05:30;12,2
2018-09-24 05:45;11,6
2018-09-24 06:00;12,8
2018-09-24 06:15;8,75
2018-09-24 06:30;13,8
2018-09-24 06:45;27,7
2018-09-24 07:00;29,85
2018-09-24 07:15;25,2
2018-09-24 07:30;48,6
2018-09-24 07:45;44,95
2018-09-24 08:00;47,2
2018-09-24 08:15;35,05
2018-09-24 08:30;42,05
2018-09-24 08:45;44,65
2018-09-24 09:00;50,1
2018-09-24 09:15;48,35
2018-09-24 09:30;52,75
2018-09-24 09:45;57,1
2018-09-24 10:00;53,75
2018-09-24 10:15;51,35
2018-09-24 10:30;54,7
2018-09-24 10:45;55,7
2018-09-24 11:00;54,2
2018-09-24 11:15;68,1
2018-09-24 11:30;68,45
2018-09-24 11:45;71,9
2018-09-24 12:00;74,85
2018-09-24 12:15;75,3
2018-09-24 12:30;74,8
2018-09-24 12:45;73,2
2018-09-24 13:00;73,35
2018-09-24 13:15;73,85
2018-09-24 13:30;74,8
2018-09-24 13:45;76,2
2018-09-24 14:00;77,2
2018-09-24 14:15;73,75
2018-09-24 14:30;74,95
2018-09-24 14:45;74,45
2018-09-24 15:00;71,35
2018-09-24 15:15;57
2018-09-24 15:30;56,85
2018-09-24 15:45;58,85
2018-09-24 16:00;57,2
2018-09-24 16:15;49,9
2018-09-24 16:30;52,5
2018-09-24 16:45;53,1
2018-09-24 17:00;49,3
2018-09-24 17:15;48
2018-09-24 17:30;51,4
2018-09-24 17:45;48,4
2018-09-24 18:00;40,55
2018-09-24 18:15;44,2
2018-09-24 18:30;44,85
2018-09-24 18:45;35,65
2018-09-24 19:00;36,85
2018-09-24 19:15;30,4
2018-09-24 19:30;26,9
2018-09-24 19:45;25,8
2018-09-24 20:00;23
2018-09-24 20:15;14,2
2018-09-24 20:30;13,4
2018-09-24 20:45;13,35
2018-09-24 21:00;11,7
2018-09-24 21:15;5,25
2018-09-24 21:30;6,3
2018-09-24 21:45;7,2
2018-09-24 22:00;4,3
2018-09-24 22:15;1,85
2018-09-24 22:30;1,65
2018-09-24 22:45;0
2018-09-24 23:00;0
2018-09-24 23:15;0
2018-09-24 23:30;0
2018-09-24 23:45;0
2018-09-25 00:00;0
2018-09-25 00:15;0
2018-09-25 00:30;0
2018-09-25 00:45;0
2018-09-25 01:00;0
2018-09-25 01:15;0,7
2018-09-25 01:30;0,7
2018-09-25 01:45;2,4
2018-09-25 02:00;2,6
2018-09-25 02:15;0,95
2018-09-25 02:30;0,1
2018-09-25 02:45;0
2018-09-25 03:00;0
2018-09-25 03:15;0
2018-09-25 03:30;0
2018-09-25 03:45;0
2018-09-25 04:00;0
2018-09-25 04:15;0
2018-09-25 04:30;0,05
2018-09-25 04:45;7,4
2018-09-25 05:00;9,5
2018-09-25 05:15;9,3
2018-09-25 05:30;10,3
2018-09-25 05:45;8
2018-09-25 06:00;9,25
2018-09-25 06:15;7,25
2018-09-25 06:30;5,55
2018-09-25 06:45;11
2018-09-25 07:00;20,9
2018-09-25 07:15;19,45
2018-09-25 07:30;51,25
2018-09-25 07:45;50,15
2018-09-25 08:00;51,4
2018-09-25 08:15;36,85
2018-09-25 08:30;38
2018-09-25 08:45;42,4
2018-09-25 09:00;46,55
2018-09-25 09:15;46,15
2018-09-25 09:30;53,85
2018-09-25 09:45;55,3
2018-09-25 10:00;52,65
2018-09-25 10:15;59,5
2018-09-25 10:30;63,1
2018-09-25 10:45;66,5
2018-09-25 11:00;62,15
2018-09-25 11:15;65,65
2018-09-25 11:30;70,45
2018-09-25 11:45;68,2
2018-09-25 12:00;72,5
2018-09-25 12:15;69,05
2018-09-25 12:30;59,6
2018-09-25 12:45;61,65
2018-09-25 13:00;67
2018-09-25 13:15;72,45
2018-09-25 13:30;66,95
2018-09-25 13:45;63,7
2018-09-25 14:00;72
2018-09-25 14:15;74,4
2018-09-25 14:30;76,5
2018-09-25 14:45;75,4
2018-09-25 15:00;64,25
2018-09-25 15:15;64,65
2018-09-25 15:30;62,5
2018-09-25 15:45;57,6
2018-09-25 16:00;59,05
2018-09-25 16:15;61,95
2018-09-25 16:30;59,3
2018-09-25 16:45;53,4
2018-09-25 17:00;54,55
2018-09-25 17:15;55,05
2018-09-25 17:30;55,2
2018-09-25 17:45;62,3
2018-09-25 18:00;51,45
2018-09-25 18:15;48,45
2018-09-25 18:30;29,75
2018-09-25 18:45;29,45
2018-09-25 19:00;28,2
2018-09-25 19:15;21,75
2018-09-25 19:30;19,75
2018-09-25 19:45;17,1
2018-09-25 20:00;17,5
2018-09-25 20:15;13
2018-09-25 20:30;12,15
2018-09-25 20:45;13,35
2018-09-25 21:00;13,2
2018-09-25 21:15;15,7
2018-09-25 21:30;15,55
2018-09-25 21:45;14,15
2018-09-25 22:00;4,05
2018-09-25 22:15;5,6
2018-09-25 22:30;6,65
2018-09-25 22:45;6,2
2018-09-25 23:00;7,55
2018-09-25 23:15;5,7
2018-09-25 23:30;1,75
2018-09-25 23:45;1,6
2018-09-26 00:00;0,05
2018-09-26 00:15;0,05
2018-09-26 00:30;0
2018-09-26 00:45;0
2018-09-26 01:00;0
2018-09-26 01:15;0
2018-09-26 01:30;0,85
2018-09-26 01:45;0,7
2018-09-26 02:00;1,35
2018-09-26 02:15;2,2
2018-09-26 02:30;2,35
2018-09-26 02:45;2,65
2018-09-26 03:00;2,3
2018-09-26 03:15;2,75
2018-09-26 03:30;3,75
2018-09-26 03:45;4,6
2018-09-26 04:00;4,5
2018-09-26 04:15;4,2
2018-09-26 04:30;7,2
2018-09-26 04:45;10,7
2018-09-26 05:00;11,1
2018-09-26 05:15;10,7
2018-09-26 05:30;11,1
2018-09-26 05:45;12,3
2018-09-26 06:00;10,9
2018-09-26 06:15;7,4
2018-09-26 06:30;7,15
2018-09-26 06:45;6,5
2018-09-26 07:00;7,45
2018-09-26 07:15;16,15
2018-09-26 07:30;43,05
2018-09-26 07:45;47,8
2018-09-26 08:00;37,1
2018-09-26 08:15;26,5
2018-09-26 08:30;34,55
2018-09-26 08:45;33,05
2018-09-26 09:00;34,8
2018-09-26 09:15;32,85
2018-09-26 09:30;37,85
2018-09-26 09:45;39,7
2018-09-26 10:00;45,55
2018-09-26 10:15;46,25
2018-09-26 10:30;44
2018-09-26 10:45;42,95
2018-09-26 11:00;36
2018-09-26 11:15;37,05
2018-09-26 11:30;32,8
2018-09-26 11:45;32,2
2018-09-26 12:00;34,45
2018-09-26 12:15;31,25
2018-09-26 12:30;31,1
2018-09-26 12:45;32,75
2018-09-26 13:00;33,45
2018-09-26 13:15;32
2018-09-26 13:30;30,05
2018-09-26 13:45;35,85
2018-09-26 14:00;29,65
2018-09-26 14:15;33,85
2018-09-26 14:30;26,15
2018-09-26 14:45;28,35
2018-09-26 15:00;28,35
2018-09-26 15:15;26,95
2018-09-26 15:30;34,35
2018-09-26 15:45;33,45
2018-09-26 16:00;28,6
2018-09-26 16:15;35,1
2018-09-26 16:30;33,95
2018-09-26 16:45;36,95
2018-09-26 17:00;30,7
2018-09-26 17:15;29,25
2018-09-26 17:30;30,45
2018-09-26 17:45;27,55
2018-09-26 18:00;28,15
2018-09-26 18:15;25,4
2018-09-26 18:30;18,8
2018-09-26 18:45;13,2
2018-09-26 19:00;15,5
2018-09-26 19:15;10,95
2018-09-26 19:30;8,35
2018-09-26 19:45;6,9
2018-09-26 20:00;4,1
2018-09-26 20:15;1,55
2018-09-26 20:30;3,95
2018-09-26 20:45;8,85
2018-09-26 21:00;8,75
2018-09-26 21:15;9,75
2018-09-26 21:30;9,95
2018-09-26 21:45;9,2
2018-09-26 22:00;6,3
2018-09-26 22:15;7,1
2018-09-26 22:30;6,75
2018-09-26 22:45;7
2018-09-26 23:00;3,05
2018-09-26 23:15;4,6
2018-09-26 23:30;4,35
2018-09-26 23:45;9
2018-09-27 00:00;7,95
2018-09-27 00:15;1
2018-09-27 00:30;2,1
2018-09-27 00:45;1,1
2018-09-27 01:00;0,2
2018-09-27 01:15;0,15
2018-09-27 01:30;0,2
2018-09-27 01:45;0,6
2018-09-27 02:00;1,1
2018-09-27 02:15;1,5
2018-09-27 02:30;1,8
2018-09-27 02:45;2,55
2018-09-27 03:00;2,15
2018-09-27 03:15;1,45
2018-09-27 03:30;2,1
2018-09-27 03:45;2,45
2018-09-27 04:00;2,8
2018-09-27 04:15;2,1
2018-09-27 04:30;2,6
2018-09-27 04:45;3,5
2018-09-27 05:00;2,35
2018-09-27 05:15;2,85
2018-09-27 05:30;2,5
2018-09-27 05:45;3,05
2018-09-27 06:00;2,75
2018-09-27 06:15;0,35
2018-09-27 06:30;0,5
2018-09-27 06:45;0,35
2018-09-27 07:00;2,1
2018-09-27 07:15;4,2
2018-09-27 07:30;18,35
2018-09-27 07:45;25,85
2018-09-27 08:00;9,95
2018-09-27 08:15;1,55
2018-09-27 08:30;17,05
2018-09-27 08:45;13,75
2018-09-27 09:00;29
2018-09-27 09:15;16,35
2018-09-27 09:30;22,4
2018-09-27 09:45;21,7
2018-09-27 10:00;39,5
2018-09-27 10:15;31,3
2018-09-27 10:30;30,2
2018-09-27 10:45;36,9
2018-09-27 11:00;37,9
2018-09-27 11:15;40,8
2018-09-27 11:30;33,55
2018-09-27 11:45;37,1
2018-09-27 12:00;36,1
2018-09-27 12:15;37,95
2018-09-27 12:30;41,85
2018-09-27 12:45;40,85
2018-09-27 13:00;42,75
2018-09-27 13:15;44,5
2018-09-27 13:30;44,55
2018-09-27 13:45;37,5
2018-09-27 14:00;53,05
2018-09-27 14:15;41,35
2018-09-27 14:30;41,6
2018-09-27 14:45;35,55
2018-09-27 15:00;48
2018-09-27 15:15;33,2
2018-09-27 15:30;34,35
2018-09-27 15:45;25,3
2018-09-27 16:00;21,1
2018-09-27 16:15;20,15
2018-09-27 16:30;18,55
2018-09-27 16:45;18,75
2018-09-27 17:00;17,3
2018-09-27 17:15;22,25
2018-09-27 17:30;21
2018-09-27 17:45;20,8
2018-09-27 18:00;10,2
2018-09-27 18:15;6,9
2018-09-27 18:30;7,1
2018-09-27 18:45;8,5
2018-09-27 19:00;9,6
2018-09-27 19:15;8,95
2018-09-27 19:30;9,75
2018-09-27 19:45;8,95
2018-09-27 20:00;7,25
2018-09-27 20:15;2,95
2018-09-27 20:30;4,7
2018-09-27 20:45;6,45
2018-09-27 21:00;6,65
2018-09-27 21:15;7,35
2018-09-27 21:30;6,15
2018-09-27 21:45;3,25
2018-09-27 22:00;0,9
2018-09-27 22:15;0,25
2018-09-27 22:30;0
2018-09-27 22:45;0
2018-09-27 23:00;0,15
2018-09-27 23:15;0
2018-09-27 23:30;0,05
2018-09-27 23:45;0
2018-09-28 00:00;0,05
2018-09-28 00:15;0
2018-09-28 00:30;0,2
2018-09-28 00:45;0,15
2018-09-28 01:00;0,1
2018-09-28 01:15;0
2018-09-28 01:30;0
2018-09-28 01:45;0,1
2018-09-28 02:00;0,05
2018-09-28 02:15;0,25
2018-09-28 02:30;1,1
2018-09-28 02:45;2,2
2018-09-28 03:00;1,6
2018-09-28 03:15;2,45
2018-09-28 03:30;3,95
2018-09-28 03:45;3,15
2018-09-28 04:00;3,1
2018-09-28 04:15;2,6
2018-09-28 04:30;3,85
2018-09-28 04:45;2,45
2018-09-28 05:00;2,1
2018-09-28 05:15;4,25
2018-09-28 05:30;4,25
2018-09-28 05:45;6,65
2018-09-28 06:00;7,95
2018-09-28 06:15;6,15
2018-09-28 06:30;4,45
2018-09-28 06:45;4,25
2018-09-28 07:00;4,95
2018-09-28 07:15;1,4
2018-09-28 07:30;2,25
2018-09-28 07:45;5,05
2018-09-28 08:00;4,65
2018-09-28 08:15;4,05
2018-09-28 08:30;7,5
2018-09-28 08:45;11,5
2018-09-28 09:00;13,85
2018-09-28 09:15;13,85
2018-09-28 09:30;14,6
2018-09-28 09:45;13,9
2018-09-28 10:00;15,9
2018-09-28 10:15;18,4
2018-09-28 10:30;17,85
2018-09-28 10:45;19,4
2018-09-28 11:00;19,8
2018-09-28 11:15;27,1
2018-09-28 11:30;29,35
2018-09-28 11:45;30,45
2018-09-28 12:00;29,55
2018-09-28 12:15;30,55
2018-09-28 12:30;31,1
2018-09-28 12:45;29,6
2018-09-28 13:00;29,2
2018-09-28 13:15;37,85
2018-09-28 13:30;39,3
2018-09-28 13:45;38,8
2018-09-28 14:00;41
2018-09-28 14:15;35,15
2018-09-28 14:30;31,35
2018-09-28 14:45;25,05
2018-09-28 15:00;23,25
2018-09-28 15:15;20
2018-09-28 15:30;17,75
2018-09-28 15:45;15,7
2018-09-28 16:00;13,65
2018-09-28 16:15;13,9
2018-09-28 16:30;11,85
2018-09-28 16:45;11,85
2018-09-28 17:00;8,3
2018-09-28 17:15;10,5
2018-09-28 17:30;8,1
2018-09-28 17:45;8,2
2018-09-28 18:00;7,1
2018-09-28 18:15;8,9
2018-09-28 18:30;5,7
2018-09-28 18:45;3
2018-09-28 19:00;3,05
2018-09-28 19:15;2,4
2018-09-28 19:30;3,1
2018-09-28 19:45;1,5
2018-09-28 20:00;1,35
2018-09-28 20:15;0
2018-09-28 20:30;0
2018-09-28 20:45;1,6
2018-09-28 21:00;1,75
2018-09-28 21:15;3,6
2018-09-28 21:30;1,35
2018-09-28 21:45;1,7
2018-09-28 22:00;0,65
2018-09-28 22:15;0
2018-09-28 22:30;0
2018-09-28 22:45;0,5
2018-09-28 23:00;1,55
2018-09-28 23:15;1,2
2018-09-28 23:30;1,35
2018-09-28 23:45;1,85
2018-09-29 00:00;3,65
2018-09-29 00:15;1,4
2018-09-29 00:30;0,75
2018-09-29 00:45;0,65
2018-09-29 01:00;0,5
2018-09-29 01:15;1,45
2018-09-29 01:30;1,7
2018-09-29 01:45;1,15
2018-09-29 02:00;1,2
2018-09-29 02:15;1,1
2018-09-29 02:30;2,65
2018-09-29 02:45;1,45
2018-09-29 03:00;1,85
2018-09-29 03:15;2,6
2018-09-29 03:30;1,6
2018-09-29 03:45;3,4
2018-09-29 04:00;1,65
2018-09-29 04:15;3,65
2018-09-29 04:30;4,1
2018-09-29 04:45;3,2
2018-09-29 05:00;3,85
2018-09-29 05:15;3,55
2018-09-29 05:30;3,4
2018-09-29 05:45;4,1
2018-09-29 06:00;3,7
2018-09-29 06:15;1,8
2018-09-29 06:30;1,65
2018-09-29 06:45;1,15
2018-09-29 07:00;2,3
2018-09-29 07:15;0,8
2018-09-29 07:30;0,8
2018-09-29 07:45;0,9
2018-09-29 08:00;0,2
2018-09-29 08:15;0
2018-09-29 08:30;0
2018-09-29 08:45;0,4
2018-09-29 09:00;0,7
2018-09-29 09:15;0,2
2018-09-29 09:30;0,95
2018-09-29 09:45;0,85
2018-09-29 10:00;4
2018-09-29 10:15;3,9
2018-09-29 10:30;4,8
2018-09-29 10:45;3,3
2018-09-29 11:00;1,5
2018-09-29 11:15;3,4
2018-09-29 11:30;5,95
2018-09-29 11:45;4,6
2018-09-29 12:00;5,55
2018-09-29 12:15;6,15
2018-09-29 12:30;4,1
2018-09-29 12:45;3,05
2018-09-29 13:00;2,95
2018-09-29 13:15;2,2
2018-09-29 13:30;3,7
2018-09-29 13:45;4,25
2018-09-29 14:00;4,1
2018-09-29 14:15;4
2018-09-29 14:30;7
2018-09-29 14:45;7,3
2018-09-29 15:00;10,1
2018-09-29 15:15;10,5
2018-09-29 15:30;11,1
2018-09-29 15:45;10,1
2018-09-29 16:00;10,3
2018-09-29 16:15;11
2018-09-29 16:30;11,25
2018-09-29 16:45;12,7
2018-09-29 17:00;10,8
2018-09-29 17:15;10,85
2018-09-29 17:30;12,9
2018-09-29 17:45;13,25
2018-09-29 18:00;14
2018-09-29 18:15;12,35
2018-09-29 18:30;12,1
2018-09-29 18:45;12,7
2018-09-29 19:00;12,45
2018-09-29 19:15;11,4
2018-09-29 19:30;9,85
2018-09-29 19:45;7,8
2018-09-29 20:00;8,65
2018-09-29 20:15;8,1
2018-09-29 20:30;9,35
2018-09-29 20:45;8,8
2018-09-29 21:00;10,95
2018-09-29 21:15;10,65
2018-09-29 21:30;11,85
2018-09-29 21:45;12,45
2018-09-29 22:00;7,4
2018-09-29 22:15;5,85
2018-09-29 22:30;7,5
2018-09-29 22:45;7,1
2018-09-29 23:00;11,35
2018-09-29 23:15;12,4
2018-09-29 23:30;10,35
2018-09-29 23:45;7,15
2018-09-30 00:00;4,5
2018-09-30 00:15;4,95
2018-09-30 00:30;1,05
2018-09-30 00:45;1,15
2018-09-30 01:00;1,5
2018-09-30 01:15;1,25
2018-09-30 01:30;1,9
2018-09-30 01:45;2,55
2018-09-30 02:00;3,1
2018-09-30 02:15;3,4
2018-09-30 02:30;2,8
2018-09-30 02:45;3,65
2018-09-30 03:00;3,4
2018-09-30 03:15;3,85
2018-09-30 03:30;4,6
2018-09-30 03:45;5,8
2018-09-30 04:00;5,55
2018-09-30 04:15;6,05
2018-09-30 04:30;5,75
2018-09-30 04:45;6,25
2018-09-30 05:00;5,15
2018-09-30 05:15;4,55
2018-09-30 05:30;6,3
2018-09-30 05:45;6,05
2018-09-30 06:00;5,2
2018-09-30 06:15;4,9
2018-09-30 06:30;4
2018-09-30 06:45;4,2
2018-09-30 07:00;5,25
2018-09-30 07:15;6,25
2018-09-30 07:30;5,7
2018-09-30 07:45;3,8
2018-09-30 08:00;3,4
2018-09-30 08:15;3,35
2018-09-30 08:30;1,6
2018-09-30 08:45;1,3
2018-09-30 09:00;1,3
2018-09-30 09:15;2,3
2018-09-30 09:30;0,7
2018-09-30 09:45;0,05
2018-09-30 10:00;1,1
2018-09-30 10:15;0,3
2018-09-30 10:30;0,45
2018-09-30 10:45;0,05
2018-09-30 11:00;0,2
2018-09-30 11:15;0
2018-09-30 11:30;0,15
2018-09-30 11:45;0,25
2018-09-30 12:00;0
2018-09-30 12:15;0
2018-09-30 12:30;0
2018-09-30 12:45;0
2018-09-30 13:00;0
2018-09-30 13:15;0
2018-09-30 13:30;0,5
2018-09-30 13:45;2,15
2018-09-30 14:00;2,45
2018-09-30 14:15;3
2018-09-30 14:30;1,8
2018-09-30 14:45;0,2
2018-09-30 15:00;0,35
2018-09-30 15:15;0,35
2018-09-30 15:30;1,2
2018-09-30 15:45;1,3
2018-09-30 16:00;1,3
2018-09-30 16:15;1,35
2018-09-30 16:30;0,85
2018-09-30 16:45;0,35
2018-09-30 17:00;0,7
2018-09-30 17:15;0,8
2018-09-30 17:30;0,45
2018-09-30 17:45;0,8
2018-09-30 18:00;0,45
2018-09-30 18:15;0,35
2018-09-30 18:30;0
2018-09-30 18:45;0
2018-09-30 19:00;0
2018-09-30 19:15;0,1
2018-09-30 19:30;0
2018-09-30 19:45;0
2018-09-30 20:00;0,2
2018-09-30 20:15;0
2018-09-30 20:30;0,1
2018-09-30 20:45;0,1
2018-09-30 21:00;0,2
2018-09-30 21:15;0,1
2018-09-30 21:30;0,1
2018-09-30 21:45;0,3
2018-09-30 22:00;0,5
2018-09-30 22:15;0
2018-09-30 22:30;0
2018-09-30 22:45;0
2018-09-30 23:00;0,75
2018-09-30 23:15;2,2
2018-09-30 23:30;1,95
2018-09-30 23:45;2,7

